Flag for Canada Weather past 2 weeks in Camrose, Alberta, Canada

Now
36 °F

Passing clouds.


Feels Like: 33 °F
Forecast: 29 / 39 °F
Wind: 3 mph from West

Location: Edmonton International

Current Time: Jan 25, 2015 at 11:38:05 PM

Latest Report: Jan 25, 2015 at 11:02 PM


Visibility: 15 mi

Pressure: 29.92 "Hg

Humidity: 75%

Dew point: 28 °F

Location of CamroseLocation

Historic Weather in Camrose — Graph

°F

Camrose temperature yesterday

Maximum temperature yesterday: 43 °F (at 12:00 PM)
Minimum temperature yesterday: 32 °F (at 6:00 PM)
Average temperature yesterday: 38 °F

Past Weeks' High & Low Weather Summary

 TemperatureHumidityPressure
High48 °F (Jan 22, 2:00 PM)100% (Jan 15, 6:00 PM)30.47 "Hg (Jan 15, 6:00 PM)
Low-18 °F (Jan 11, 7:00 AM)43% (Jan 25, 5:00 PM)29.49 "Hg (Jan 16, 8:00 AM)
Average26 °F74%29.99 "Hg
* Reported Jan 10 10:00 PM — Jan 25 10:00 PM, Camrose, Weather by CustomWeather, © 2014

Note: Actual official high and low records may vary slightly from our data, if they occured in-between our weather recording intervals... More about our weather records

Advertising

Camrose weather history for previous 24 hours

 ConditionsComfort  
Time TempWeatherWind HumidityBarometerVisibility
10:00 PM
Jan 25
43 °FPassing clouds.7 mph53%29.93 "Hg15 mi
9:00 PM43 °FPassing clouds.9 mph53%29.93 "Hg15 mi
8:00 PM43 °FPartly cloudy.8 mph53%29.92 "Hg15 mi
7:00 PM41 °FPartly cloudy.7 mph57%29.89 "Hg15 mi
6:00 PM43 °FPartly cloudy.7 mph53%29.88 "Hg15 mi
5:00 PM46 °FPartly sunny.10 mph43%29.86 "Hg15 mi
4:00 PM41 °FPartly sunny.9 mph66%29.85 "Hg15 mi
3:00 PM43 °FBroken clouds.2 mph66%29.83 "Hg15 mi
2:00 PM43 °FBroken clouds.5 mph61%29.81 "Hg15 mi
1:00 PM41 °FPartly sunny.6 mph70%29.80 "Hg15 mi
12:00 PM39 °FPartly sunny.9 mph70%29.79 "Hg15 mi
11:00 AM39 °FPartly sunny.8 mph70%29.78 "Hg15 mi
10:00 AM36 °FPartly sunny.7 mph81%29.76 "Hg15 mi
9:00 AM34 °FBroken clouds.3 mph81%29.74 "Hg15 mi
8:00 AM36 °FPassing clouds.9 mph81%29.73 "Hg15 mi
7:00 AM36 °FPassing clouds.12 mph81%29.72 "Hg15 mi
6:00 AM36 °FPassing clouds.12 mph81%29.73 "Hg15 mi
5:00 AM36 °FPassing clouds.14 mph81%29.74 "Hg15 mi
4:00 AM36 °FMostly cloudy.13 mph75%29.75 "Hg15 mi
3:52 AM36 °FMostly cloudy.14 mph75%29.76 "Hg15 mi
3:00 AM37 °FMostly cloudy.17 mph70%29.77 "Hg15 mi
2:53 AM37 °FMostly cloudy.17 mph65%29.78 "Hg15 mi
2:00 AM37 °FLight rain. Mostly cloudy.18 mph65%29.85 "Hg15 mi
1:00 AM39 °FLight rain. Overcast.2 mph61%29.87 "Hg15 mi
12:00 AM39 °FMostly cloudy.16 mph61%29.88 "Hg15 mi
11:00 PM
Jan 24
37 °FMostly cloudy.15 mph65%29.93 "Hg15 mi
Weather by CustomWeather, © 2014

See weather overviewHow to use our weather pages